DW1032 Weather Reports


Display with metric or nautical units.
time (UTC)temp
F
wind
direction
speed
MPH
gust
MPH
rain 1hr
in
rain 24hr
in
rain mn
in
humidity
%
barometer
mb
20200706105828 68 57 0.0 0.0 0.00 0.00 0.00 67 1014.7
20200706105327 68 57 0.0 0.0 0.00 0.00 0.00 66 1014.8
20200706104831 67 57 0.0 0.0 0.00 0.00 0.00 67 1014.7
20200706104336 67 57 0.0 0.0 0.00 0.00 0.00 67 1014.7
20200706103841 66 57 0.0 0.0 0.00 0.00 0.00 66 1014.8
20200706103344 66 57 0.0 0.0 0.00 0.00 0.00 66 1014.7
20200706102829 66 57 0.0 0.0 0.00 0.00 0.00 66 1014.7
20200706102334 66 57 0.0 0.0 0.00 0.00 0.00 66 1014.7
20200706101838 66 57 0.0 0.0 0.00 0.00 0.00 66 1014.6
20200706101343 66 57 0.0 0.0 0.00 0.00 0.00 65 1014.6
20200706100825 66 57 0.0 0.0 0.00 0.00 0.00 64 1014.6
20200706100329 66 57 0.0 0.0 0.00 0.00 0.00 64 1014.6
20200706095842 66 57 0.0 0.0 0.00 0.00 0.00 63 1014.6
20200706095326 66 57 0.0 0.0 0.00 0.00 0.00 63 1014.5
20200706094830 66 57 0.0 0.0 0.00 0.00 0.00 62 1014.4
20200706094334 66 57 0.0 0.0 0.00 0.00 0.00 62 1014.5
20200706093839 67 57 0.0 0.0 0.00 0.00 0.00 62 1014.4
20200706093326 66 53 0.0 0.0 0.00 0.00 0.00 61 1014.3
20200706092830 66 53 0.0 0.0 0.00 0.00 0.00 60 1014.2
20200706092335 66 53 0.0 0.0 0.00 0.00 0.00 60 1014.3
20200706091838 66 57 0.0 0.0 0.00 0.00 0.00 61 1014.2
20200706091344 66 178 0.0 0.0 0.00 0.00 0.00 63 1014.2
20200706090827 66 179 0.0 0.0 0.00 0.00 0.00 64 1014.1
20200706090331 66 179 0.0 0.0 0.00 0.00 0.00 63 1014.0
20200706085835 66 179 0.0 0.0 0.00 0.00 0.00 63 1014.1
20200706085341 67 179 0.0 0.0 0.00 0.00 0.00 62 1014.1
20200706084842 67 179 0.0 0.0 0.00 0.00 0.00 62 1014.1
20200706084328 67 179 0.0 0.0 0.00 0.00 0.00 61 1014.1
20200706083830 68 179 0.0 0.0 0.00 0.00 0.00 59 1014.0
20200706083336 68 179 0.0 0.0 0.00 0.00 0.00 58 1014.0
20200706082837 68 179 0.0 0.0 0.00 0.00 0.00 55 1014.0
20200706082342 68 179 0.0 0.0 0.00 0.00 0.00 54 1014.0
20200706081824 68 179 0.0 0.0 0.00 0.00 0.00 54 1014.0
20200706081330 68 179 0.0 0.0 0.00 0.00 0.00 54 1014.0
20200706080832 68 179 0.0 0.0 0.00 0.00 0.00 54 1014.1
20200706080336 68 179 0.0 0.0 0.00 0.00 0.00 54 1014.1
20200706075841 68 179 0.0 0.0 0.00 0.00 0.00 54 1014.1
20200706075325 68 179 0.0 0.0 0.00 0.00 0.00 55 1014.1
20200706074829 68 179 0.0 0.0 0.00 0.00 0.00 55 1014.2
20200706074335 68 179 0.0 0.0 0.00 0.00 0.00 55 1014.1
20200706073837 68 179 0.0 0.0 0.00 0.00 0.00 56 1014.1
20200706073341 68 179 0.0 0.0 0.00 0.00 0.00 58 1014.1
20200706072826 69 180 0.0 0.0 0.00 0.00 0.00 58 1014.1
20200706072330 69 180 0.0 0.0 0.00 0.00 0.00 58 1014.2
20200706071833 69 179 0.0 0.0 0.00 0.00 0.00 58 1014.1
20200706071336 70 179 0.0 0.0 0.00 0.00 0.00 56 1014.2
20200706070841 70 179 0.0 0.0 0.00 0.00 0.00 53 1014.3
20200706070344 70 179 0.0 0.0 0.00 0.00 0.00 51 1014.3
20200706065836 71 179 0.0 0.0 0.00 0.00 0.00 52 1014.2
20200706065340 71 179 0.0 0.0 0.00 0.00 0.00 52 1014.3
20200706064842 71 179 0.0 0.0 0.00 0.00 0.00 51 1014.3
20200706064328 71 179 0.0 0.0 0.00 0.00 0.00 52 1014.2
20200706063831 71 179 0.0 0.0 0.00 0.00 0.00 50 1014.3
20200706063336 71 179 0.0 0.0 0.00 0.00 0.00 50 1014.3
20200706062841 72 179 0.0 0.0 0.00 0.00 0.00 50 1014.4
20200706062325 72 179 0.0 0.0 0.00 0.00 0.00 49 1014.5
20200706061828 72 179 0.0 0.0 0.00 0.00 0.00 49 1014.5
20200706061334 72 179 0.0 0.0 0.00 0.00 0.00 48 1014.5
20200706060837 73 179 0.0 0.0 0.00 0.00 0.00 48 1014.6
20200706060341 73 179 0.0 0.0 0.00 0.00 0.00 48 1014.6
20200706055826 73 179 0.0 0.0 0.00 0.00 0.00 48 1014.6
20200706055330 73 179 0.0 0.0 0.00 0.00 0.00 47 1014.6
20200706054833 73 179 0.0 0.0 0.00 0.00 0.00 47 1014.6
20200706054337 74 179 0.0 0.0 0.00 0.00 0.00 47 1014.5
20200706053841 74 179 0.0 0.0 0.00 0.00 0.00 46 1014.6
20200706053326 74 179 0.0 0.0 0.00 0.00 0.00 46 1014.6
20200706052831 74 179 0.0 0.0 0.00 0.00 0.00 46 1014.6
20200706052334 74 179 0.0 0.0 0.00 0.00 0.00 45 1014.6
20200706051837 74 179 0.0 0.0 0.00 0.00 0.00 44 1014.6
20200706051341 74 179 0.0 0.0 0.00 0.00 0.00 44 1014.5
20200706050844 74 179 0.0 0.0 0.00 0.00 0.00 42 1014.5
20200706050328 74 179 0.0 0.0 0.00 0.00 0.00 41 1014.5
20200706045833 73 179 0.0 0.0 0.00 0.00 0.00 40 1014.5
20200706045337 73 179 0.0 0.0 0.00 0.00 0.00 39 1014.4
20200706044839 73 179 0.0 0.0 0.00 0.00 0.00 39 1014.5
20200706044345 73 179 0.0 0.0 0.00 0.00 0.00 39 1014.5
20200706043827 73 179 0.0 0.0 0.00 0.00 0.00 39 1014.5
20200706043332 73 179 0.0 0.0 0.00 0.00 0.00 38 1014.4
20200706042834 74 179 0.0 0.0 0.00 0.00 0.00 38 1014.5
20200706042339 74 179 0.0 0.0 0.00 0.00 0.00 38 1014.5
20200706041842 74 179 0.0 0.0 0.00 0.00 0.00 37 1014.5
20200706041329 74 180 0.0 0.0 0.00 0.00 0.00 37 1014.5
20200706040831 74 176 0.0 0.0 0.00 0.00 0.00 37 1014.6
20200706040333 74 176 0.0 0.0 0.00 0.00 0.00 36 1014.5
20200706035827 74 180 0.0 0.0 0.00 0.00 0.00 35 1014.5
20200706035330 74 180 0.0 0.0 0.00 0.00 0.00 34 1014.4
20200706034833 74 180 0.0 0.0 0.00 0.00 0.00 35 1014.2
20200706034338 74 180 0.0 0.0 0.00 0.00 0.00 35 1014.2
20200706033825 74 180 0.0 0.0 0.00 0.00 0.00 36 1014.2
20200706033330 74 180 0.0 0.0 0.00 0.00 0.00 36 1014.2
20200706032835 74 174 0.0 0.0 0.00 0.00 0.00 38 1014.2
20200706032340 74 197 0.0 0.0 0.00 0.00 0.00 38 1014.2
20200706031842 74 197 0.0 0.0 0.00 0.00 0.00 38 1014.2
20200706031329 74 197 0.0 0.0 0.00 0.00 0.00 39 1014.1
20200706030830 74 197 0.0 0.0 0.00 0.00 0.00 40 1014.1
20200706030333 74 85 0.0 0.0 0.00 0.00 0.00 41 1014.2
20200706025837 74 84 0.0 0.0 0.00 0.00 0.00 42 1014.1
20200706025342 74 84 0.0 0.0 0.00 0.00 0.00 43 1014.1
20200706024825 74 84 0.0 0.0 0.00 0.00 0.00 46 1014.0
20200706024330 75 84 0.0 0.0 0.00 0.00 0.00 46 1014.0
20200706023833 75 84 0.0 0.0 0.00 0.00 0.00 44 1014.0
20200706023338 75 84 0.0 0.0 0.00 0.00 0.00 43 1014.0
20200706022842 75 84 0.0 0.0 0.00 0.00 0.00 43 1014.0
20200706022326 75 84 0.0 0.0 0.00 0.00 0.00 42 1014.0
20200706021830 75 84 0.0 0.0 0.00 0.00 0.00 42 1013.9
20200706021334 76 84 0.0 0.0 0.00 0.00 0.00 42 1013.8
20200706020837 76 84 0.0 0.0 0.00 0.00 0.00 42 1013.7
20200706020341 76 84 0.0 0.0 0.00 0.00 0.00 42 1013.7
20200706015825 77 84 0.0 0.0 0.00 0.00 0.00 42 1013.5
20200706015328 77 84 0.0 0.0 0.00 0.00 0.00 41 1013.5
20200706014833 77 84 0.0 0.0 0.00 0.00 0.00 38 1013.4
20200706014338 78 84 0.0 0.0 0.00 0.00 0.00 37 1013.4
20200706013843 78 84 0.0 0.0 0.00 0.00 0.00 36 1013.4
20200706013327 78 82 0.0 0.0 0.00 0.00 0.00 35 1013.3
20200706012831 78 76 0.0 0.0 0.00 0.00 0.00 35 1013.3
20200706012334 78 65 0.0 0.0 0.00 0.00 0.00 36 1013.3
20200706011836 78 77 0.0 0.0 0.00 0.00 0.00 38 1013.3
20200706011342 79 103 0.0 0.0 0.00 0.00 0.00 39 1013.1
20200706010823 79 69 0.0 0.0 0.00 0.00 0.00 39 1013.1
20200706010327 79 69 0.0 0.0 0.00 0.00 0.00 40 1013.2
20200706005841 79 62 0.0 1.0 0.00 0.00 0.00 43 1013.2
20200706005324 80 55 0.0 1.0 0.00 0.00 0.00 44 1013.2
20200706004828 80 51 0.0 0.0 0.00 0.00 0.00 44 1013.1
20200706004334 80 78 0.0 0.0 0.00 0.00 0.00 44 1013.1
20200706003838 81 69 0.0 0.0 0.00 0.00 0.00 44 1013.1
20200706003342 81 74 0.0 0.0 0.00 0.00 0.00 43 1013.1
20200706002827 81 83 0.0 0.0 0.00 0.00 0.00 44 1013.1
20200706002329 81 81 0.0 1.0 0.00 0.00 0.00 44 1013.1
20200706001833 82 78 0.0 5.0 0.00 0.00 0.00 43 1013.2
20200706001338 82 83 1.0 5.0 0.00 0.00 0.00 43 1013.2
20200706000842 82 62 0.0 4.0 0.00 0.00 0.00 43 1013.3
20200706000325 82 53 0.0 8.0 0.00 0.00 0.00 43 1013.3
20200705235831 83 82 1.0 8.0 0.00 0.00 0.00 42 1013.2
20200705235333 83 46 0.0 6.0 0.00 0.00 0.00 43 1013.3
20200705234835 83 39 0.0 1.0 0.00 0.00 0.00 45 1013.4
20200705234340 83 26 0.0 1.0 0.00 0.00 0.00 44 1013.3
20200705233824 83 76 0.0 3.0 0.00 0.00 0.00 44 1013.2
20200705233327 84 82 0.0 3.0 0.00 0.00 0.00 44 1013.2
20200705232831 84 113 0.0 3.0 0.00 0.00 0.00 44 1013.3
20200705232333 84 87 1.0 11.0 0.00 0.00 0.00 44 1013.3
20200705231836 84 92 0.0 11.0 0.00 0.00 0.00 44 1013.3
20200705231341 85 69 0.0 4.0 0.00 0.00 0.00 44 1013.2
20200705230845 85 76 0.0 4.0 0.00 0.00 0.00 45 1013.2
20200705230327 85 101 0.0 3.0 0.00 0.00 0.00 45 1013.1
20200705225833 85 99 0.0 5.0 0.00 0.00 0.00 45 1013.1
20200705225336 85 80 0.0 5.0 0.00 0.00 0.00 46 1013.0
20200705224840 85 107 0.0 4.0 0.00 0.00 0.00 46 1012.9
20200705224344 85 76 0.0 2.0 0.00 0.00 0.00 46 1012.9
20200705223827 85 98 0.0 10.0 0.00 0.00 0.00 45 1012.9
20200705223331 85 83 1.0 10.0 0.00 0.00 0.00 45 1012.9
20200705222836 85 39 1.0 10.0 0.00 0.00 0.00 45 1012.9
20200705222338 85 76 1.0 10.0 0.00 0.00 0.00 46 1012.8
20200705221840 85 68 0.0 5.0 0.00 0.00 0.00 45 1012.8
20200705221325 86 79 0.0 5.0 0.00 0.00 0.00 45 1012.8
20200705220829 86 81 0.0 8.0 0.00 0.00 0.00 45 1012.9
20200705220333 87 65 0.0 4.0 0.00 0.00 0.00 45 1012.9
20200705215828 87 78 1.0 8.0 0.00 0.00 0.00 44 1012.9
20200705215330 87 86 1.0 13.0 0.00 0.00 0.00 43 1012.9
20200705214831 88 88 2.0 13.0 0.00 0.00 0.00 42 1012.8
20200705214336 90 55 1.0 7.0 0.00 0.00 0.00 41 1012.8
20200705213839 90 36 0.0 1.0 0.00 0.00 0.00 35 1012.8
20200705213327 90 283 0.0 1.0 0.00 0.00 0.00 35 1012.9
20200705212833 90 225 0.0 0.0 0.00 0.00 0.00 38 1012.9
20200705212332 90 15 0.0 4.0 0.00 0.00 0.00 36 1012.9
20200705211836 90 269 0.0 4.0 0.00 0.00 0.00 36 1013.0
20200705211339 90 255 0.0 3.0 0.00 0.00 0.00 37 1012.9
20200705210844 90 259 0.0 6.0 0.00 0.00 0.00 38 1013.1
20200705210326 89 175 1.0 6.0 0.00 0.00 0.00 38 1013.0
20200705205832 90 175 0.0 7.0 0.00 0.00 0.00 38 1013.1
20200705205335 90 306 0.0 7.0 0.00 0.00 0.00 36 1013.1
20200705204839 90 272 0.0 7.0 0.00 0.00 0.00 37 1013.1
20200705204344 90 212 1.0 7.0 0.00 0.00 0.00 37 1013.2
20200705203825 90 285 0.0 3.0 0.00 0.00 0.00 37 1013.1
20200705203330 90 262 0.0 1.0 0.00 0.00 0.00 38 1013.1
20200705202835 90 260 0.0 3.0 0.00 0.00 0.00 38 1013.1
20200705202336 90 208 0.0 3.0 0.00 0.00 0.00 38 1013.1
20200705201840 90 259 0.0 1.0 0.00 0.00 0.00 38 1013.2
20200705201325 90 314 0.0 0.0 0.00 0.00 0.00 35 1013.3
20200705200827 89 219 0.0 2.0 0.00 0.00 0.00 36 1013.3
20200705200330 89 274 0.0 5.0 0.00 0.00 0.00 36 1013.4
20200705195834 89 198 0.0 5.0 0.00 0.00 0.00 36 1013.3
20200705195338 89 144 0.0 4.0 0.00 0.00 0.00 36 1013.4
20200705194840 90 237 0.0 7.0 0.00 0.00 0.00 35 1013.4
20200705194326 90 175 0.0 7.0 0.00 0.00 0.00 35 1013.5
20200705193826 90 182 0.0 2.0 0.00 0.00 0.00 34 1013.5
20200705193332 89 258 0.0 5.0 0.00 0.00 0.00 34 1013.5
20200705192834 89 232 0.0 10.0 0.00 0.00 0.00 36 1013.6
20200705192341 89 243 0.0 10.0 0.00 0.00 0.00 36 1013.7
20200705191824 89 209 0.0 1.0 0.00 0.00 0.00 37 1013.7
20200705191329 88 182 0.0 2.0 0.00 0.00 0.00 39 1013.7
20200705190832 88 209 0.0 9.0 0.00 0.00 0.00 38 1013.9
20200705190336 89 225 0.0 6.0 0.00 0.00 0.00 38 1013.9
20200705185831 89 170 0.0 6.0 0.00 0.00 0.00 37 1013.9
20200705185335 88 123 0.0 6.0 0.00 0.00 0.00 34 1013.9
20200705184837 88 182 0.0 2.0 0.00 0.00 0.00 36 1014.0
20200705184343 88 231 0.0 8.0 0.00 0.00 0.00 37 1014.0
20200705183826 88 213 1.0 5.0 0.00 0.00 0.00 39 1014.0
20200705183329 88 182 0.0 1.0 0.00 0.00 0.00 41 1014.0
20200705182836 88 232 0.0 1.0 0.00 0.00 0.00 41 1014.0
20200705182337 87 156 0.0 6.0 0.00 0.00 0.00 41 1014.1
20200705181841 87 182 1.0 6.0 0.00 0.00 0.00 40 1014.2
20200705181326 87 190 0.0 3.0 0.00 0.00 0.00 41 1014.3
20200705180826 87 130 0.0 0.0 0.00 0.00 0.00 42 1014.4
20200705180329 87 209 0.0 7.0 0.00 0.00 0.00 42 1014.5
20200705175833 88 254 0.0 7.0 0.00 0.00 0.00 40 1014.5
20200705175335 88 175 0.0 3.0 0.00 0.00 0.00 40 1014.5
20200705174838 87 115 0.0 1.0 0.00 0.00 0.00 40 1014.6
20200705174343 86 77 0.0 0.0 0.00 0.00 0.00 39 1014.6
20200705173826 86 248 0.0 0.0 0.00 0.00 0.00 41 1014.6
20200705173330 86 200 0.0 7.0 0.00 0.00 0.00 42 1014.6
20200705172835 86 223 0.0 7.0 0.00 0.00 0.00 43 1014.7
20200705172338 87 277 0.0 1.0 0.00 0.00 0.00 44 1014.7
20200705171841 86 175 0.0 1.0 0.00 0.00 0.00 44 1014.7
20200705171326 86 253 0.0 1.0 0.00 0.00 0.00 44 1014.7
20200705170828 86 280 0.0 0.0 0.00 0.00 0.00 44 1014.8
20200705170333 86 286 0.0 2.0 0.00 0.00 0.00 44 1014.9
20200705165836 86 199 0.0 2.0 0.00 0.00 0.00 47 1014.9
20200705165342 86 229 0.0 0.0 0.00 0.00 0.00 46 1015.0
20200705164824 85 46 0.0 7.0 0.00 0.00 0.00 45 1015.1
20200705164330 85 292 1.0 7.0 0.00 0.00 0.00 46 1015.2
20200705163832 85 252 0.0 2.0 0.00 0.00 0.00 47 1015.1
20200705163337 85 34 0.0 5.0 0.00 0.00 0.00 46 1015.2
20200705162842 85 199 0.0 8.0 0.00 0.00 0.00 47 1015.1
20200705162325 84 229 0.0 1.0 0.00 0.00 0.00 47 1015.1
20200705161829 84 246 0.0 6.0 0.00 0.00 0.00 47 1015.2
20200705161336 84 183 0.0 9.0 0.00 0.00 0.00 47 1015.0
20200705160837 84 231 0.0 9.0 0.00 0.00 0.00 48 1015.1
20200705160341 84 158 0.0 9.0 0.00 0.00 0.00 47 1015.1
20200705155835 84 304 0.0 9.0 0.00 0.00 0.00 47 1015.2
20200705155336 84 248 0.0 1.0 0.00 0.00 0.00 49 1015.2
20200705154841 83 223 0.0 7.0 0.00 0.00 0.00 48 1015.2
20200705154326 83 249 1.0 7.0 0.00 0.00 0.00 50 1015.2
20200705153829 83 239 0.0 3.0 0.00 0.00 0.00 49 1015.2
20200705153333 83 232 0.0 3.0 0.00 0.00 0.00 49 1015.2
20200705152838 83 223 0.0 2.0 0.00 0.00 0.00 49 1015.2
20200705152324 83 176 0.0 0.0 0.00 0.00 0.00 50 1015.0
20200705151827 82 30 0.0 1.0 0.00 0.00 0.00 50 1014.9
20200705151334 82 17 0.0 1.0 0.00 0.00 0.00 51 1015.1
20200705150836 82 234 0.0 4.0 0.00 0.00 0.00 52 1015.1
20200705150339 82 249 0.0 4.0 0.00 0.00 0.00 53 1015.1
20200705145824 81 309 0.0 2.0 0.00 0.00 0.00 56 1015.2
20200705145327 81 277 0.0 1.0 0.00 0.00 0.00 56 1015.2
20200705144830 81 237 0.0 4.0 0.00 0.00 0.00 56 1015.2
20200705144334 81 295 0.0 1.0 0.00 0.00 0.00 55 1015.1
20200705143840 80 268 0.0 1.0 0.00 0.00 0.00 57 1015.2
20200705143343 80 303 0.0 0.0 0.00 0.00 0.00 59 1015.2
20200705142829 80 246 0.0 0.0 0.00 0.00 0.00 58 1015.2
20200705142331 79 271 0.0 7.0 0.00 0.00 0.00 58 1015.3
20200705141835 79 238 0.0 7.0 0.00 0.00 0.00 59 1015.3
20200705141340 79 229 0.0 3.0 0.00 0.00 0.00 59 1015.3
20200705140844 78 286 0.0 3.0 0.00 0.00 0.00 59 1015.3
20200705140327 78 227 0.0 4.0 0.00 0.00 0.00 58 1015.3
20200705135831 78 209 0.0 4.0 0.00 0.00 0.00 59 1015.3
20200705135336 77 225 0.0 0.0 0.00 0.00 0.00 58 1015.4
20200705134839 77 213 0.0 4.0 0.00 0.00 0.00 58 1015.4
20200705134326 77 223 0.0 4.0 0.00 0.00 0.00 57 1015.4
20200705133827 77 227 0.0 0.0 0.00 0.00 0.00 55 1015.3
20200705133333 76 250 0.0 0.0 0.00 0.00 0.00 54 1015.4
20200705132836 76 223 0.0 0.0 0.00 0.00 0.00 52 1015.4
20200705132342 76 238 0.0 0.0 0.00 0.00 0.00 51 1015.4
20200705131824 75 215 0.0 0.0 0.00 0.00 0.00 51 1015.4
20200705131329 74 227 0.0 0.0 0.00 0.00 0.00 53 1015.3
20200705130831 74 214 0.0 0.0 0.00 0.00 0.00 53 1015.3
20200705130336 73 214 0.0 0.0 0.00 0.00 0.00 52 1015.3
20200705125829 73 215 0.0 0.0 0.00 0.00 0.00 52 1015.3
20200705125332 72 221 0.0 0.0 0.00 0.00 0.00 51 1015.3
20200705124835 72 234 0.0 0.0 0.00 0.00 0.00 53 1015.2
20200705124342 71 254 0.0 0.0 0.00 0.00 0.00 52 1015.2
20200705123824 71 254 0.0 0.0 0.00 0.00 0.00 52 1015.2
20200705123325 71 254 0.0 0.0 0.00 0.00 0.00 52 1015.2
20200705122830 70 254 0.0 0.0 0.00 0.00 0.00 52 1015.2
20200705122333 70 251 0.0 0.0 0.00 0.00 0.00 52 1015.2
20200705121836 70 246 0.0 1.0 0.00 0.00 0.00 52 1015.0
20200705121343 70 219 0.0 1.0 0.00 0.00 0.00 52 1014.9
20200705120825 69 220 0.0 0.0 0.00 0.00 0.00 51 1014.8
20200705120330 69 233 0.0 0.0 0.00 0.00 0.00 58 1014.8
20200705115833 69 228 0.0 0.0 0.00 0.00 0.00 59 1015.0
20200705115340 68 259 0.0 0.0 0.00 0.00 0.00 60 1015.0
20200705114842 68 259 0.0 0.0 0.00 0.00 0.00 58 1015.0
20200705114329 67 254 0.0 0.0 0.00 0.00 0.00 61 1014.9
20200705113831 67 256 0.0 0.0 0.00 0.00 0.00 63 1014.9
20200705113335 67 256 0.0 0.0 0.00 0.00 0.00 63 1014.8
20200705112838 67 236 0.0 0.0 0.00 0.00 0.00 61 1014.8
20200705112344 66 245 0.0 0.0 0.00 0.00 0.00 61 1014.9
20200705111826 66 245 0.0 0.0 0.00 0.00 0.00 61 1014.9
20200705111333 66 246 0.0 0.0 0.00 0.00 0.00 60 1014.8
20200705110836 65 257 0.0 0.0 0.00 0.00 0.00 60 1014.9